| time (UTC) | temp F | wind direction | speed MPH | gust MPH | rain 1hr in | rain 24hr in | rain mn in | humidity % | barometer mb |
| 20260906095508 | 70 | 156 | 0.0 | 2.0 | 0.00 | 0.02 | 0.00 | 81 | 1016.0 |
| 20260906095008 | 70 | 129 | 0.0 | 0.0 | 0.00 | 0.02 | 0.00 | 82 | 1015.9 |
| 20260906094515 | 70 | 209 | 0.0 | 0.0 | 0.00 | 0.02 | 0.00 | 82 | 1015.9 |
| 20260906094009 | 70 | 256 | 0.0 | 0.0 | 0.00 | 0.02 | 0.00 | 82 | 1015.9 |
| 20260906093511 | 70 | 256 | 0.0 | 0.0 | 0.00 | 0.02 | 0.00 | 82 | 1015.9 |
| 20260906093021 | 71 | 246 | 0.0 | 0.0 | 0.00 | 0.02 | 0.00 | 82 | 1015.9 |
| 20260906092511 | 71 | 304 | 0.0 | 0.0 | 0.00 | 0.02 | 0.00 | 82 | 1015.9 |
| 20260906092009 | 71 | 304 | 0.0 | 2.0 | 0.00 | 0.02 | 0.00 | 82 | 1015.9 |
| 20260906091504 | 71 | 5 | 1.0 | 3.0 | 0.00 | 0.02 | 0.00 | 82 | 1015.9 |
| 20260906091004 | 72 | 338 | 1.0 | 3.0 | 0.00 | 0.02 | 0.00 | 82 | 1015.9 |
| 20260906090503 | 72 | 294 | 1.0 | 2.0 | 0.00 | 0.02 | 0.00 | 82 | 1015.9 |
| 20260906090009 | 72 | 305 | 1.0 | 3.0 | 0.00 | 0.02 | 0.00 | 83 | 1015.8 |
| 20260906085508 | 72 | 315 | 0.0 | 5.0 | 0.00 | 0.02 | 0.00 | 83 | 1015.8 |
| 20260906085006 | 72 | 304 | 2.0 | 5.0 | 0.00 | 0.02 | 0.00 | 83 | 1015.7 |
| 20260906084512 | 72 | 314 | 0.0 | 3.0 | 0.00 | 0.02 | 0.00 | 83 | 1015.6 |
| 20260906084013 | 72 | 296 | 1.0 | 4.0 | 0.00 | 0.02 | 0.00 | 84 | 1015.6 |
| 20260906083509 | 72 | 49 | 0.0 | 4.0 | 0.00 | 0.02 | 0.00 | 84 | 1015.5 |
| 20260906083023 | 71 | 44 | 1.0 | 2.0 | 0.00 | 0.02 | 0.00 | 84 | 1015.5 |
| 20260906082511 | 71 | 198 | 1.0 | 2.0 | 0.00 | 0.02 | 0.00 | 84 | 1015.5 |
| 20260906082010 | 71 | 307 | 1.0 | 2.0 | 0.00 | 0.02 | 0.00 | 84 | 1015.3 |
| 20260906081517 | 71 | 206 | 0.0 | 3.0 | 0.00 | 0.02 | 0.00 | 84 | 1015.4 |
| 20260906081012 | 71 | 317 | 1.0 | 4.0 | 0.00 | 0.02 | 0.00 | 84 | 1015.4 |
| 20260906080504 | 71 | 323 | 2.0 | 4.0 | 0.00 | 0.02 | 0.00 | 84 | 1015.5 |
| 20260906080018 | 71 | 236 | 0.0 | 4.0 | 0.00 | 0.02 | 0.00 | 84 | 1015.3 |
| 20260906075504 | 71 | 315 | 1.0 | 4.0 | 0.00 | 0.02 | 0.00 | 84 | 1015.3 |
| 20260906075006 | 71 | 286 | 1.0 | 4.0 | 0.00 | 0.02 | 0.00 | 84 | 1015.3 |
| 20260906074510 | 71 | 294 | 0.0 | 4.0 | 0.00 | 0.02 | 0.00 | 84 | 1015.4 |
| 20260906074007 | 71 | 325 | 1.0 | 4.0 | 0.00 | 0.02 | 0.00 | 84 | 1015.3 |
| 20260906073511 | 71 | 347 | 1.0 | 4.0 | 0.00 | 0.02 | 0.00 | 84 | 1015.4 |
| 20260906073015 | 71 | 300 | 1.0 | 3.0 | 0.00 | 0.02 | 0.00 | 84 | 1015.5 |
| 20260906072511 | 71 | 332 | 0.0 | 3.0 | 0.00 | 0.02 | 0.00 | 84 | 1015.4 |
| 20260906072011 | 71 | 314 | 0.0 | 3.0 | 0.00 | 0.02 | 0.00 | 84 | 1015.3 |
| 20260906071520 | 71 | 318 | 1.0 | 3.0 | 0.00 | 0.02 | 0.00 | 84 | 1015.4 |
| 20260906071015 | 71 | 299 | 1.0 | 3.0 | 0.00 | 0.02 | 0.00 | 84 | 1015.4 |
| 20260906070512 | 71 | 300 | 1.0 | 2.0 | 0.00 | 0.02 | 0.00 | 84 | 1015.5 |
| 20260906070020 | 71 | 277 | 0.0 | 2.0 | 0.00 | 0.02 | 0.00 | 84 | 1015.5 |
| 20260906065504 | 71 | 318 | 0.0 | 2.0 | 0.00 | 0.02 | 0.00 | 84 | 1015.4 |
| 20260906065006 | 71 | 321 | 0.0 | 3.0 | 0.00 | 0.02 | 0.00 | 84 | 1015.4 |
| 20260906064508 | 71 | 243 | 0.0 | 3.0 | 0.00 | 0.02 | 0.00 | 83 | 1015.4 |
| 20260906064009 | 71 | 290 | 1.0 | 3.0 | 0.00 | 0.02 | 0.00 | 83 | 1015.4 |
| 20260906063510 | 71 | 327 | 0.0 | 3.0 | 0.00 | 0.02 | 0.00 | 83 | 1015.3 |
| 20260906063012 | 71 | 228 | 0.0 | 2.0 | 0.00 | 0.02 | 0.00 | 83 | 1015.5 |
| 20260906062512 | 71 | 305 | 0.0 | 2.0 | 0.00 | 0.02 | 0.00 | 83 | 1015.5 |
| 20260906062011 | 71 | 276 | 0.0 | 2.0 | 0.00 | 0.02 | 0.00 | 83 | 1015.4 |
| 20260906061525 | 71 | 271 | 1.0 | 2.0 | 0.00 | 0.02 | 0.00 | 83 | 1015.5 |
| 20260906061011 | 71 | 243 | 0.0 | 2.0 | 0.00 | 0.02 | 0.00 | 83 | 1015.5 |
| 20260906060513 | 71 | 295 | 1.0 | 2.0 | 0.00 | 0.02 | 0.00 | 83 | 1015.3 |
| 20260906060022 | 71 | 248 | 0.0 | 2.0 | 0.00 | 0.02 | 0.00 | 83 | 1015.4 |
| 20260906055515 | 71 | 288 | 1.0 | 2.0 | 0.00 | 0.02 | 0.00 | 83 | 1015.4 |
| 20260906055013 | 71 | 276 | 0.0 | 2.0 | 0.00 | 0.02 | 0.00 | 83 | 1015.4 |
| 20260906054506 | 71 | 336 | 0.0 | 2.0 | 0.00 | 0.02 | 0.00 | 82 | 1015.3 |
| 20260906054007 | 72 | 284 | 0.0 | 2.0 | 0.00 | 0.02 | 0.00 | 82 | 1015.2 |
| 20260906053512 | 72 | 298 | 0.0 | 2.0 | 0.00 | 0.02 | 0.00 | 82 | 1015.3 |
| 20260906053012 | 72 | 172 | 0.0 | 2.0 | 0.00 | 0.02 | 0.00 | 82 | 1015.3 |
| 20260906052512 | 72 | 37 | 1.0 | 2.0 | 0.00 | 0.02 | 0.00 | 82 | 1015.3 |
| 20260906052009 | 72 | 267 | 0.0 | 6.0 | 0.00 | 0.02 | 0.00 | 82 | 1015.2 |
| 20260906051518 | 72 | 278 | 0.0 | 6.0 | 0.00 | 0.02 | 0.00 | 81 | 1015.2 |
| 20260906051011 | 72 | 325 | 0.0 | 4.0 | 0.00 | 0.02 | 0.00 | 81 | 1015.1 |
| 20260906050513 | 72 | 317 | 0.0 | 6.0 | 0.00 | 0.02 | 0.00 | 81 | 1015.1 |
| 20260906050027 | 73 | 308 | 2.0 | 5.0 | 0.00 | 0.02 | 0.00 | 80 | 1015.1 |
| 20260906045514 | 73 | 316 | 0.0 | 5.0 | 0.00 | 0.02 | 0.00 | 80 | 1015.1 |
| 20260906045014 | 73 | 313 | 2.0 | 5.0 | 0.00 | 0.02 | 0.00 | 80 | 1015.0 |
| 20260906044524 | 73 | 347 | 1.0 | 5.0 | 0.00 | 0.02 | 0.00 | 80 | 1015.1 |
| 20260906044016 | 73 | 297 | 1.0 | 3.0 | 0.00 | 0.02 | 0.00 | 80 | 1015.1 |
| 20260906043506 | 73 | 13 | 1.0 | 4.0 | 0.00 | 0.02 | 0.00 | 80 | 1014.9 |
| 20260906043018 | 73 | 310 | 0.0 | 4.0 | 0.00 | 0.02 | 0.00 | 81 | 1014.9 |
| 20260906042509 | 73 | 273 | 0.0 | 3.0 | 0.00 | 0.02 | 0.00 | 80 | 1014.9 |
| 20260906042011 | 73 | 220 | 0.0 | 6.0 | 0.00 | 0.02 | 0.00 | 80 | 1014.8 |
| 20260906041517 | 73 | 142 | 2.0 | 6.0 | 0.00 | 0.02 | 0.00 | 80 | 1014.7 |
| 20260906041015 | 73 | 312 | 2.0 | 5.0 | 0.00 | 0.02 | 0.00 | 80 | 1014.7 |
| 20260906040511 | 73 | 22 | 2.0 | 8.0 | 0.00 | 0.02 | 0.00 | 79 | 1014.7 |
| 20260906040026 | 73 | 47 | 2.0 | 8.0 | 0.00 | 0.02 | 0.00 | 79 | 1014.7 |
| 20260906035514 | 73 | 329 | 2.0 | 6.0 | 0.00 | 0.02 | 0.02 | 79 | 1014.9 |
| 20260906035016 | 73 | 296 | 1.0 | 6.0 | 0.00 | 0.02 | 0.02 | 79 | 1014.8 |
| 20260906034526 | 73 | 316 | 2.0 | 5.0 | 0.00 | 0.02 | 0.02 | 79 | 1014.9 |
| 20260906034015 | 74 | 332 | 1.0 | 4.0 | 0.00 | 0.02 | 0.02 | 79 | 1014.9 |
| 20260906033514 | 74 | 309 | 1.0 | 6.0 | 0.00 | 0.02 | 0.02 | 78 | 1014.9 |
| 20260906033026 | 74 | 352 | 1.0 | 9.0 | 0.00 | 0.02 | 0.02 | 78 | 1015.0 |
| 20260906032507 | 74 | 315 | 3.0 | 9.0 | 0.00 | 0.02 | 0.02 | 78 | 1014.9 |
| 20260906032007 | 74 | 35 | 2.0 | 6.0 | 0.00 | 0.02 | 0.02 | 78 | 1014.8 |
| 20260906031517 | 75 | 314 | 2.0 | 6.0 | 0.00 | 0.02 | 0.02 | 77 | 1014.7 |
| 20260906031008 | 75 | 338 | 2.0 | 5.0 | 0.00 | 0.02 | 0.02 | 77 | 1014.9 |
| 20260906030512 | 75 | 69 | 2.0 | 5.0 | 0.00 | 0.02 | 0.02 | 77 | 1014.9 |
| 20260906030022 | 75 | 236 | 2.0 | 5.0 | 0.00 | 0.02 | 0.02 | 76 | 1014.9 |
| 20260906025515 | 75 | 298 | 2.0 | 6.0 | 0.00 | 0.02 | 0.02 | 76 | 1014.9 |
| 20260906025017 | 75 | 304 | 2.0 | 6.0 | 0.00 | 0.02 | 0.02 | 76 | 1014.9 |
| 20260906024504 | 76 | 112 | 1.0 | 5.0 | 0.00 | 0.02 | 0.02 | 76 | 1014.8 |
| 20260906024003 | 76 | 302 | 1.0 | 5.0 | 0.00 | 0.02 | 0.02 | 75 | 1014.6 |
| 20260906023504 | 76 | 275 | 2.0 | 10.0 | 0.00 | 0.02 | 0.02 | 75 | 1014.6 |
| 20260906023004 | 76 | 270 | 3.0 | 10.0 | 0.00 | 0.02 | 0.02 | 74 | 1014.4 |
| 20260906022510 | 77 | 204 | 2.0 | 6.0 | 0.00 | 0.02 | 0.02 | 74 | 1014.4 |
| 20260906022008 | 77 | 302 | 1.0 | 8.0 | 0.00 | 0.02 | 0.02 | 73 | 1014.3 |
| 20260906021512 | 77 | 342 | 4.0 | 12.0 | 0.00 | 0.02 | 0.02 | 73 | 1014.2 |
| 20260906021010 | 77 | 343 | 4.0 | 12.0 | 0.00 | 0.02 | 0.02 | 73 | 1014.2 |
| 20260906020512 | 78 | 333 | 3.0 | 10.0 | 0.00 | 0.02 | 0.02 | 73 | 1014.2 |
| 20260906020018 | 78 | 311 | 3.0 | 9.0 | 0.00 | 0.02 | 0.02 | 73 | 1014.1 |
| 20260906015513 | 78 | 327 | 2.0 | 5.0 | 0.00 | 0.02 | 0.02 | 73 | 1014.1 |
| 20260906015015 | 78 | 336 | 2.0 | 5.0 | 0.00 | 0.02 | 0.02 | 73 | 1014.0 |
| 20260906014528 | 79 | 344 | 2.0 | 5.0 | 0.00 | 0.02 | 0.02 | 72 | 1014.1 |
| 20260906014015 | 79 | 294 | 1.0 | 4.0 | 0.00 | 0.02 | 0.02 | 72 | 1014.1 |
| 20260906013504 | 79 | 259 | 0.0 | 3.0 | 0.00 | 0.02 | 0.02 | 72 | 1014.0 |
| 20260906013006 | 80 | 299 | 1.0 | 3.0 | 0.00 | 0.02 | 0.02 | 71 | 1013.9 |
| 20260906012503 | 80 | 292 | 1.0 | 4.0 | 0.00 | 0.02 | 0.02 | 70 | 1013.8 |
| 20260906012006 | 80 | 5 | 2.0 | 4.0 | 0.00 | 0.02 | 0.02 | 70 | 1013.7 |
| 20260906011512 | 80 | 303 | 1.0 | 3.0 | 0.00 | 0.02 | 0.02 | 69 | 1013.7 |
| 20260906011010 | 80 | 273 | 1.0 | 2.0 | 0.00 | 0.02 | 0.02 | 69 | 1013.6 |
| 20260906010508 | 81 | 203 | 1.0 | 4.0 | 0.00 | 0.02 | 0.02 | 69 | 1013.6 |
| 20260906010018 | 81 | 321 | 2.0 | 4.0 | 0.00 | 0.02 | 0.02 | 68 | 1013.5 |
| 20260906005514 | 81 | 258 | 1.0 | 9.0 | 0.00 | 0.02 | 0.02 | 68 | 1013.3 |
| 20260906005013 | 81 | 265 | 2.0 | 8.0 | 0.00 | 0.02 | 0.02 | 68 | 1013.3 |
| 20260906004525 | 81 | 238 | 2.0 | 6.0 | 0.00 | 0.02 | 0.02 | 69 | 1013.1 |
| 20260906004012 | 82 | 334 | 2.0 | 6.0 | 0.00 | 0.02 | 0.02 | 68 | 1013.1 |
| 20260906003516 | 82 | 315 | 1.0 | 4.0 | 0.00 | 0.02 | 0.02 | 69 | 1013.2 |
| 20260906003030 | 83 | 284 | 1.0 | 5.0 | 0.00 | 0.02 | 0.02 | 68 | 1013.3 |
| 20260906002504 | 83 | 9 | 2.0 | 8.0 | 0.00 | 0.02 | 0.02 | 68 | 1013.3 |
| 20260906002006 | 83 | 255 | 3.0 | 8.0 | 0.00 | 0.02 | 0.02 | 69 | 1013.2 |
| 20260906001516 | 83 | 285 | 2.0 | 4.0 | 0.00 | 0.02 | 0.02 | 70 | 1013.2 |
| 20260906001007 | 83 | 308 | 1.0 | 4.0 | 0.00 | 0.02 | 0.02 | 69 | 1013.3 |
| 20260906000509 | 84 | 15 | 2.0 | 3.0 | 0.00 | 0.02 | 0.02 | 70 | 1013.2 |
| 20260906000034 | 84 | 360 | 1.0 | 9.0 | 0.00 | 0.02 | 0.02 | 68 | 1013.3 |
| 20260905235510 | 85 | 313 | 3.0 | 9.0 | 0.00 | 0.02 | 0.02 | 68 | 1013.2 |
| 20260905235015 | 85 | 247 | 2.0 | 8.0 | 0.00 | 0.02 | 0.02 | 68 | 1013.2 |
| 20260905234523 | 86 | 317 | 1.0 | 4.0 | 0.00 | 0.02 | 0.02 | 69 | 1013.0 |
| 20260905234014 | 86 | 323 | 2.0 | 10.0 | 0.00 | 0.02 | 0.02 | 67 | 1012.8 |
| 20260905233514 | 87 | 286 | 2.0 | 10.0 | 0.00 | 0.02 | 0.02 | 66 | 1012.8 |
| 20260905233025 | 87 | 22 | 4.0 | 10.0 | 0.00 | 0.02 | 0.02 | 65 | 1012.8 |
| 20260905232517 | 88 | 329 | 3.0 | 8.0 | 0.00 | 0.02 | 0.02 | 65 | 1012.7 |
| 20260905232016 | 88 | 350 | 3.0 | 8.0 | 0.00 | 0.02 | 0.02 | 64 | 1012.7 |
| 20260905231507 | 88 | 360 | 3.0 | 8.0 | 0.00 | 0.02 | 0.02 | 64 | 1012.7 |
| 20260905231007 | 88 | 348 | 3.0 | 6.0 | 0.00 | 0.02 | 0.02 | 64 | 1012.7 |
| 20260905230508 | 88 | 329 | 3.0 | 9.0 | 0.00 | 0.02 | 0.02 | 64 | 1012.5 |
| 20260905230010 | 89 | 333 | 5.0 | 9.0 | 0.00 | 0.02 | 0.02 | 62 | 1012.5 |
| 20260905225511 | 89 | 299 | 2.0 | 5.0 | 0.00 | 0.02 | 0.02 | 63 | 1012.4 |
| 20260905225010 | 90 | 344 | 3.0 | 5.0 | 0.00 | 0.02 | 0.02 | 62 | 1012.4 |
| 20260905224518 | 90 | 318 | 2.0 | 9.0 | 0.00 | 0.02 | 0.02 | 63 | 1012.4 |
| 20260905224013 | 90 | 302 | 3.0 | 9.0 | 0.00 | 0.02 | 0.02 | 61 | 1012.4 |
| 20260905223513 | 90 | 290 | 3.0 | 6.0 | 0.00 | 0.02 | 0.02 | 61 | 1012.4 |
| 20260905223028 | 91 | 360 | 3.0 | 10.0 | 0.00 | 0.02 | 0.02 | 61 | 1012.3 |
| 20260905222515 | 91 | 299 | 5.0 | 10.0 | 0.00 | 0.02 | 0.02 | 61 | 1012.4 |
| 20260905222015 | 90 | 348 | 2.0 | 9.0 | 0.00 | 0.02 | 0.02 | 63 | 1012.4 |
| 20260905221532 | 91 | 336 | 2.0 | 9.0 | 0.00 | 0.02 | 0.02 | 61 | 1012.3 |
| 20260905221003 | 90 | 5 | 4.0 | 6.0 | 0.00 | 0.02 | 0.02 | 62 | 1012.3 |
| 20260905220506 | 90 | 313 | 3.0 | 6.0 | 0.00 | 0.02 | 0.02 | 64 | 1012.3 |
| 20260905220011 | 90 | 344 | 2.0 | 8.0 | 0.00 | 0.02 | 0.02 | 61 | 1012.3 |
| 20260905215507 | 91 | 329 | 4.0 | 8.0 | 0.00 | 0.02 | 0.02 | 60 | 1012.3 |
| 20260905215008 | 92 | 337 | 1.0 | 5.0 | 0.00 | 0.02 | 0.02 | 60 | 1012.3 |
| 20260905214518 | 91 | 109 | 1.0 | 2.0 | 0.00 | 0.02 | 0.02 | 62 | 1012.3 |
| 20260905214014 | 91 | 306 | 1.0 | 4.0 | 0.00 | 0.02 | 0.02 | 63 | 1012.4 |
| 20260905213513 | 91 | 44 | 2.0 | 4.0 | 0.00 | 0.02 | 0.02 | 61 | 1012.4 |
| 20260905213023 | 91 | 351 | 1.0 | 3.0 | 0.00 | 0.02 | 0.02 | 64 | 1012.4 |
| 20260905212516 | 90 | 336 | 0.0 | 3.0 | 0.00 | 0.02 | 0.02 | 65 | 1012.4 |
| 20260905212013 | 90 | 150 | 0.0 | 2.0 | 0.00 | 0.02 | 0.02 | 64 | 1012.2 |
| 20260905211529 | 91 | 215 | 0.0 | 2.0 | 0.00 | 0.02 | 0.02 | 63 | 1012.2 |
| 20260905211015 | 91 | 322 | 0.0 | 2.0 | 0.00 | 0.02 | 0.02 | 59 | 1012.2 |
| 20260905210519 | 91 | 227 | 1.0 | 2.0 | 0.00 | 0.02 | 0.02 | 59 | 1012.3 |
| 20260905210008 | 91 | 316 | 1.0 | 2.0 | 0.00 | 0.02 | 0.02 | 63 | 1012.3 |
| 20260905205508 | 88 | 173 | 0.0 | 2.0 | 0.00 | 0.02 | 0.02 | 63 | 1012.4 |
| 20260905205007 | 88 | 173 | 0.0 | 2.0 | 0.00 | 0.02 | 0.02 | 63 | 1012.4 |
| 20260905204514 | 88 | 173 | 0.0 | 2.0 | 0.00 | 0.02 | 0.02 | 67 | 1012.5 |
| 20260905204011 | 87 | 160 | 1.0 | 2.0 | 0.00 | 0.02 | 0.02 | 63 | 1012.5 |
| 20260905203513 | 87 | 160 | 0.0 | 2.0 | 0.00 | 0.02 | 0.02 | 63 | 1012.5 |
| 20260905203024 | 87 | 133 | 0.0 | 2.0 | 0.01 | 0.02 | 0.02 | 68 | 1012.5 |
| 20260905202518 | 86 | 132 | 0.0 | 2.0 | 0.02 | 0.02 | 0.02 | 69 | 1012.6 |
| 20260905202014 | 86 | 224 | 0.0 | 2.0 | 0.02 | 0.02 | 0.02 | 71 | 1012.7 |
| 20260905201526 | 86 | 224 | 0.0 | 2.0 | 0.02 | 0.02 | 0.02 | 69 | 1012.7 |
| 20260905201015 | 86 | 334 | 0.0 | 2.0 | 0.02 | 0.02 | 0.02 | 71 | 1012.7 |
| 20260905200515 | 82 | 148 | 0.0 | 2.0 | 0.02 | 0.02 | 0.02 | 81 | 1012.8 |
| 20260905200032 | 81 | 166 | 1.0 | 3.0 | 0.02 | 0.02 | 0.02 | 79 | 1013.0 |
| 20260905195519 | 81 | 136 | 1.0 | 3.0 | 0.02 | 0.02 | 0.02 | 78 | 1013.1 |
| 20260905195008 | 82 | 229 | 1.0 | 3.0 | 0.02 | 0.02 | 0.02 | 69 | 1013.2 |
| 20260905194514 | 84 | 316 | 1.0 | 5.0 | 0.02 | 0.02 | 0.02 | 70 | 1013.3 |
| 20260905194012 | 83 | 284 | 2.0 | 5.0 | 0.02 | 0.02 | 0.02 | 70 | 1013.7 |
| 20260905193507 | 84 | 157 | 2.0 | 2.0 | 0.02 | 0.02 | 0.02 | 77 | 1013.4 |
| 20260905193019 | 86 | 311 | 0.0 | 4.0 | 0.01 | 0.01 | 0.01 | 70 | 1013.3 |
| 20260905192513 | 88 | 352 | 1.0 | 4.0 | 0.00 | 0.00 | 0.00 | 66 | 1013.3 |
| 20260905192014 | 89 | 326 | 1.0 | 7.0 | 0.00 | 0.00 | 0.00 | 67 | 1013.3 |
| 20260905191528 | 91 | 332 | 1.0 | 7.0 | 0.00 | 0.00 | 0.00 | 58 | 1013.1 |
| 20260905191016 | 92 | 311 | 2.0 | 7.0 | 0.00 | 0.00 | 0.00 | 56 | 1013.2 |
| 20260905190517 | 93 | 223 | 2.0 | 5.0 | 0.00 | 0.00 | 0.00 | 58 | 1013.2 |
| 20260905190029 | 93 | 20 | 1.0 | 4.0 | 0.00 | 0.00 | 0.00 | 64 | 1013.1 |
| 20260905185517 | 91 | 302 | 0.0 | 2.0 | 0.00 | 0.00 | 0.00 | 60 | 1013.0 |
| 20260905185014 | 90 | 194 | 0.0 | 2.0 | 0.00 | 0.00 | 0.00 | 61 | 1013.2 |
| 20260905184550 | 91 | 302 | 1.0 | 2.0 | 0.00 | 0.00 | 0.00 | 62 | 1013.2 |
| 20260905184008 | 91 | 157 | 1.0 | 2.0 | 0.00 | 0.00 | 0.00 | 65 | 1013.4 |
| 20260905183511 | 91 | 190 | 0.0 | 2.0 | 0.00 | 0.00 | 0.00 | 63 | 1013.5 |
| 20260905183036 | 91 | 15 | 1.0 | 2.0 | 0.00 | 0.00 | 0.00 | 57 | 1013.6 |
| 20260905182513 | 91 | 315 | 1.0 | 2.0 | 0.00 | 0.00 | 0.00 | 58 | 1013.6 |
| 20260905182014 | 91 | 160 | 1.0 | 3.0 | 0.00 | 0.00 | 0.00 | 60 | 1013.7 |
| 20260905181524 | 91 | 298 | 1.0 | 3.0 | 0.00 | 0.00 | 0.00 | 63 | 1013.8 |
| 20260905181013 | 91 | 143 | 1.0 | 3.0 | 0.00 | 0.00 | 0.00 | 59 | 1013.9 |
| 20260905180516 | 90 | 67 | 1.0 | 3.0 | 0.00 | 0.00 | 0.00 | 64 | 1014.0 |
| 20260905180033 | 90 | 95 | 1.0 | 3.0 | 0.00 | 0.00 | 0.00 | 59 | 1014.1 |
| 20260905175514 | 90 | 125 | 0.0 | 3.0 | 0.00 | 0.00 | 0.00 | 69 | 1014.2 |
| 20260905175018 | 90 | 325 | 1.0 | 3.0 | 0.00 | 0.00 | 0.00 | 61 | 1014.2 |
| 20260905174529 | 90 | 119 | 1.0 | 2.0 | 0.00 | 0.00 | 0.00 | 59 | 1014.2 |
| 20260905174020 | 90 | 22 | 1.0 | 2.0 | 0.00 | 0.00 | 0.00 | 62 | 1014.3 |
| 20260905173510 | 90 | 323 | 0.0 | 3.0 | 0.00 | 0.00 | 0.00 | 64 | 1014.2 |
| 20260905173013 | 90 | 138 | 0.0 | 3.0 | 0.00 | 0.00 | 0.00 | 62 | 1014.2 |
| 20260905172513 | 89 | 286 | 1.0 | 4.0 | 0.00 | 0.00 | 0.00 | 63 | 1014.2 |
| 20260905172012 | 89 | 55 | 2.0 | 4.0 | 0.00 | 0.00 | 0.00 | 62 | 1014.2 |
| 20260905171521 | 89 | 150 | 1.0 | 3.0 | 0.00 | 0.00 | 0.00 | 64 | 1014.2 |
| 20260905171013 | 88 | 189 | 1.0 | 3.0 | 0.00 | 0.00 | 0.00 | 64 | 1014.2 |
| 20260905170512 | 88 | 203 | 1.0 | 3.0 | 0.00 | 0.00 | 0.00 | 64 | 1014.2 |
| 20260905170026 | 87 | 207 | 1.0 | 3.0 | 0.00 | 0.00 | 0.00 | 67 | 1014.3 |
| 20260905165516 | 88 | 213 | 1.0 | 3.0 | 0.00 | 0.00 | 0.00 | 66 | 1014.4 |
| 20260905165017 | 87 | 12 | 1.0 | 3.0 | 0.00 | 0.00 | 0.00 | 62 | 1014.4 |
| 20260905164533 | 87 | 276 | 2.0 | 3.0 | 0.00 | 0.00 | 0.00 | 62 | 1014.5 |
| 20260905164015 | 87 | 26 | 1.0 | 3.0 | 0.00 | 0.00 | 0.00 | 63 | 1014.5 |
| 20260905163515 | 87 | 21 | 0.0 | 5.0 | 0.00 | 0.00 | 0.00 | 67 | 1014.5 |
| 20260905163031 | 86 | 133 | 0.0 | 5.0 | 0.00 | 0.00 | 0.00 | 65 | 1014.5 |
| 20260905162511 | 86 | 267 | 1.0 | 3.0 | 0.00 | 0.00 | 0.00 | 67 | 1014.5 |
| 20260905162010 | 85 | 325 | 0.0 | 2.0 | 0.00 | 0.00 | 0.00 | 69 | 1014.4 |
| 20260905161517 | 83 | 196 | 0.0 | 2.0 | 0.00 | 0.00 | 0.00 | 69 | 1014.6 |
| 20260905161010 | 84 | 317 | 0.0 | 2.0 | 0.00 | 0.00 | 0.00 | 70 | 1014.8 |
| 20260905160514 | 85 | 275 | 1.0 | 2.0 | 0.00 | 0.00 | 0.00 | 66 | 1014.8 |
| 20260905160027 | 85 | 261 | 0.0 | 3.0 | 0.00 | 0.00 | 0.00 | 69 | 1014.5 |
| 20260905155516 | 86 | 240 | 1.0 | 5.0 | 0.00 | 0.00 | 0.00 | 68 | 1014.4 |
| 20260905155015 | 85 | 231 | 0.0 | 5.0 | 0.00 | 0.00 | 0.00 | 67 | 1014.5 |
| 20260905154540 | 85 | 250 | 1.0 | 5.0 | 0.00 | 0.00 | 0.00 | 70 | 1014.6 |
| 20260905154017 | 86 | 173 | 1.0 | 3.0 | 0.00 | 0.00 | 0.00 | 68 | 1014.9 |
| 20260905153518 | 86 | 40 | 1.0 | 3.0 | 0.00 | 0.00 | 0.00 | 68 | 1014.9 |
| 20260905153031 | 86 | 22 | 1.0 | 3.0 | 0.00 | 0.00 | 0.00 | 70 | 1014.9 |
| 20260905152519 | 85 | 328 | 1.0 | 4.0 | 0.00 | 0.00 | 0.00 | 68 | 1014.8 |
| 20260905152020 | 85 | 138 | 1.0 | 4.0 | 0.00 | 0.00 | 0.00 | 71 | 1014.6 |
| 20260905151516 | 84 | 82 | 1.0 | 4.0 | 0.00 | 0.00 | 0.00 | 68 | 1014.7 |
| 20260905151015 | 84 | 223 | 1.0 | 4.0 | 0.00 | 0.00 | 0.00 | 70 | 1014.5 |
| 20260905150514 | 84 | 152 | 0.0 | 4.0 | 0.00 | 0.00 | 0.00 | 72 | 1014.5 |
| 20260905150023 | 84 | 182 | 1.0 | 3.0 | 0.00 | 0.00 | 0.00 | 71 | 1014.8 |
| 20260905145513 | 83 | 118 | 1.0 | 4.0 | 0.00 | 0.00 | 0.00 | 70 | 1015.1 |
| 20260905145016 | 83 | 275 | 0.0 | 4.0 | 0.00 | 0.00 | 0.00 | 71 | 1015.1 |
| 20260905144534 | 83 | 157 | 1.0 | 2.0 | 0.00 | 0.00 | 0.00 | 71 | 1014.9 |
| 20260905144017 | 83 | 164 | 0.0 | 2.0 | 0.00 | 0.00 | 0.00 | 72 | 1014.9 |
| 20260905143519 | 83 | 28 | 0.0 | 3.0 | 0.00 | 0.00 | 0.00 | 74 | 1014.9 |
| 20260905143033 | 82 | 105 | 1.0 | 3.0 | 0.00 | 0.00 | 0.00 | 76 | 1015.0 |
| 20260905142515 | 82 | 238 | 0.0 | 3.0 | 0.00 | 0.00 | 0.00 | 79 | 1015.0 |
| 20260905142020 | 81 | 155 | 0.0 | 2.0 | 0.00 | 0.00 | 0.00 | 79 | 1014.9 |
| 20260905141534 | 80 | 196 | 0.0 | 2.0 | 0.00 | 0.00 | 0.00 | 80 | 1014.8 |
| 20260905141019 | 79 | 209 | 0.0 | 2.0 | 0.00 | 0.00 | 0.00 | 80 | 1014.8 |
| 20260905140510 | 79 | 146 | 0.0 | 2.0 | 0.00 | 0.00 | 0.00 | 80 | 1014.9 |
| 20260905140017 | 79 | 142 | 1.0 | 2.0 | 0.00 | 0.00 | 0.00 | 80 | 1014.8 |
| 20260905135512 | 79 | 158 | 0.0 | 2.0 | 0.00 | 0.00 | 0.00 | 83 | 1014.9 |
| 20260905135017 | 78 | 136 | 0.0 | 2.0 | 0.00 | 0.00 | 0.00 | 83 | 1014.8 |
| 20260905134527 | 78 | 138 | 1.0 | 2.0 | 0.00 | 0.00 | 0.00 | 84 | 1014.7 |
| 20260905134019 | 78 | 259 | 0.0 | 2.0 | 0.00 | 0.00 | 0.00 | 83 | 1014.5 |
| 20260905133514 | 78 | 259 | 0.0 | 2.0 | 0.00 | 0.00 | 0.00 | 83 | 1014.6 |
| 20260905133041 | 77 | 258 | 0.0 | 2.0 | 0.00 | 0.00 | 0.00 | 83 | 1014.6 |
| 20260905132518 | 77 | 259 | 0.0 | 2.0 | 0.00 | 0.00 | 0.00 | 84 | 1014.5 |
| 20260905132016 | 76 | 259 | 0.0 | 1.0 | 0.00 | 0.00 | 0.00 | 84 | 1014.5 |
| 20260905131538 | 76 | 259 | 0.0 | 2.0 | 0.00 | 0.00 | 0.00 | 84 | 1014.5 |
| 20260905131018 | 76 | 259 | 0.0 | 2.0 | 0.00 | 0.00 | 0.00 | 84 | 1014.5 |
| 20260905130518 | 76 | 259 | 0.0 | 2.0 | 0.00 | 0.00 | 0.00 | 84 | 1014.4 |
| 20260905130033 | 75 | 259 | 0.0 | 2.0 | 0.00 | 0.00 | 0.00 | 84 | 1014.4 |
| 20260905125510 | 75 | 259 | 0.0 | 0.0 | 0.00 | 0.00 | 0.00 | 84 | 1014.4 |
| 20260905125014 | 75 | 259 | 0.0 | 0.0 | 0.00 | 0.00 | 0.00 | 85 | 1014.5 |
| 20260905124527 | 75 | 259 | 0.0 | 0.0 | 0.00 | 0.00 | 0.00 | 85 | 1014.4 |
| 20260905124017 | 75 | 259 | 0.0 | 0.0 | 0.00 | 0.00 | 0.00 | 85 | 1014.4 |
| 20260905123517 | 75 | 259 | 0.0 | 0.0 | 0.00 | 0.00 | 0.00 | 85 | 1014.3 |
| 20260905123030 | 74 | 259 | 0.0 | 0.0 | 0.00 | 0.00 | 0.00 | 85 | 1014.3 |
| 20260905122516 | 74 | 259 | 0.0 | 0.0 | 0.00 | 0.00 | 0.00 | 85 | 1014.2 |
| 20260905122017 | 74 | 259 | 0.0 | 0.0 | 0.00 | 0.00 | 0.00 | 85 | 1014.1 |
| 20260905121531 | 74 | 259 | 0.0 | 0.0 | 0.00 | 0.00 | 0.00 | 85 | 1014.0 |
| 20260905121018 | 74 | 259 | 0.0 | 0.0 | 0.00 | 0.00 | 0.00 | 85 | 1014.1 |
| 20260905120518 | 74 | 259 | 0.0 | 2.0 | 0.00 | 0.00 | 0.00 | 85 | 1014.1 |
| 20260905120040 | 74 | 259 | 0.0 | 2.0 | 0.00 | 0.00 | 0.00 | 85 | 1014.1 |
| 20260905115516 | 74 | 259 | 0.0 | 2.0 | 0.00 | 0.00 | 0.00 | 85 | 1014.1 |
| 20260905115014 | 74 | 259 | 0.0 | 2.0 | 0.00 | 0.00 | 0.00 | 86 | 1014.1 |
| 20260905114524 | 74 | 259 | 0.0 | 2.0 | 0.00 | 0.00 | 0.00 | 85 | 1014.0 |
| 20260905114015 | 73 | 259 | 0.0 | 2.0 | 0.00 | 0.00 | 0.00 | 85 | 1014.1 |
| 20260905113516 | 74 | 259 | 0.0 | 1.0 | 0.00 | 0.00 | 0.00 | 85 | 1014.1 |
| 20260905113042 | 74 | 259 | 0.0 | 0.0 | 0.00 | 0.00 | 0.00 | 85 | 1014.0 |
| 20260905112518 | 74 | 259 | 0.0 | 0.0 | 0.00 | 0.00 | 0.00 | 85 | 1013.9 |
| 20260905112018 | 74 | 259 | 0.0 | 0.0 | 0.00 | 0.00 | 0.00 | 85 | 1014.0 |
| 20260905111551 | 74 | 259 | 0.0 | 0.0 | 0.00 | 0.00 | 0.00 | 85 | 1014.0 |
| 20260905111017 | 74 | 259 | 0.0 | 0.0 | 0.00 | 0.00 | 0.00 | 85 | 1014.0 |
| 20260905110506 | 74 | 259 | 0.0 | 0.0 | 0.00 | 0.00 | 0.00 | 85 | 1014.0 |
| 20260905110031 | 74 | 259 | 0.0 | 1.0 | 0.00 | 0.00 | 0.00 | 85 | 1013.9 |
| 20260905105511 | 73 | 259 | 0.0 | 1.0 | 0.00 | 0.00 | 0.00 | 85 | 1014.0 |
| 20260905105010 | 73 | 259 | 0.0 | 2.0 | 0.00 | 0.00 | 0.00 | 84 | 1013.9 |
| 20260905104519 | 74 | 259 | 0.0 | 2.0 | 0.00 | 0.00 | 0.00 | 85 | 1013.9 |
| 20260905104014 | 74 | 259 | 0.0 | 1.0 | 0.00 | 0.00 | 0.00 | 85 | 1013.8 |
| 20260905103519 | 74 | 259 | 0.0 | 2.0 | 0.00 | 0.00 | 0.00 | 85 | 1013.8 |
| 20260905103028 | 74 | 259 | 0.0 | 2.0 | 0.00 | 0.00 | 0.00 | 85 | 1013.9 |
| 20260905102516 | 74 | 259 | 0.0 | 0.0 | 0.00 | 0.00 | 0.00 | 85 | 1013.9 |
| 20260905102015 | 75 | 259 | 0.0 | 2.0 | 0.00 | 0.00 | 0.00 | 85 | 1013.9 |
| 20260905101546 | 75 | 259 | 0.0 | 2.0 | 0.00 | 0.00 | 0.00 | 85 | 1013.9 |
| 20260905101014 | 75 | 259 | 0.0 | 2.0 | 0.00 | 0.00 | 0.00 | 85 | 1013.9 |
| 20260905100519 | 74 | 259 | 0.0 | 2.0 | 0.00 | 0.00 | 0.00 | 85 | 1013.9 |
| 20260905100031 | 74 | 259 | 0.0 | 2.0 | 0.00 | 0.00 | 0.00 | 84 | 1013.9 |